Location: Napier
(39.4830°S, 176.9170°E)
Time: 04:41:46
(UTC+13:00)

SeaSat 1 - Pass Details

Date: 24 January 2019
Orbit: 745 x 747 km, 108.0° (Epoch: 17 October)

Event Time Altitude Azimuth Distance (km) Brightness Sun altitude
Rises 23:35:39 0° 155° (SSE) 3,224 6.2 -26.0°
Reaches altitude 10° 23:37:56 10° 155° (SSE) 2,293 5.4 -26.3°
Maximum altitude 23:42:56 86° 241° (WSW) 761 2.4 -26.7°
Enters shadow 23:42:57 86° 248° (WSW) 761 2.4 -26.7°
